Regional Weather Roundup
Issued by NWS State College, PA

Home | Current Version | Previous Version | Graphics & Text | Print | Product List | Glossary On
Versions: 1 2 3 4 5 6 7 8 9 10 11 12 13 14 15 16 17 18 19 20 21 22 23 24 25 26 27 28 29 30 31 32 33 34 35 36 37 38 39 40 41 42 43 44 45 46 47 48 49 50
000
ASUS41 KCTP 200810
RWRCTP

REGIONAL WEATHER ROUNDUP
NATIONAL WEATHER SERVICE STATE COLLEGE PA
300 AM EST SAT DEC 20 2014

Note: "fair" indicates few or no clouds below 12,000 feet with no
significant weather and/or obstructions to visibility.

* = STATION THAT DOES NOT REPORT PRECIPITATION /E.G. RAIN...SNOW...ETC/
    THUNDER OR FOG.

PAZ002>004-007>009-013>016-020>023-029>032-200900-
WESTERN PENNSYLVANIA

CITY           SKY/WX    TMP DP  RH WIND       PRES   REMARKS
ERIE           CLOUDY    30  19  63 W7        30.26R
MEADVILLE      CLOUDY    27  20  75 CALM      30.22R
FRANKLIN*      CLOUDY    25  18  74 CALM      30.23R
NEW CASTLE       N/A     26  18  72 CALM      30.28R
BEAVER COUNTY  NOT AVBL
BUTLER*        CLOUDY    27  18  69 CALM      30.26S
PITTSBURGH INT CLOUDY    28  21  75 N5        30.23F
PITTSBURGH     CLOUDY    28  17  63 CALM      30.22F
INDIANA*       CLOUDY    27  19  74 W6        30.27R
LATROBE        CLOUDY    25  19  80 MISG      30.26S
WASHINGTON CO* NOT AVBL
$$

PAZ004>006-010>012-017>019-024>028-033>037-041-042-045-046-049>053-200900-
CENTRAL PENNSYLVANIA

CITY           SKY/WX    TMP DP  RH WIND       PRES   REMARKS
BRADFORD       CLOUDY    22  18  85 VRB5      30.15R
DUBOIS         CLOUDY    21  19  92 W5        30.19R WCI  15
CLEARFIELD     CLOUDY    24  18  77 NW6       30.21R
JOHNSTOWN      CLOUDY    21  15  78 NW6       30.16S WCI  13
ALTOONA        CLOUDY    25  19  78 W7        30.21R
STATE COLLEGE  CLOUDY    26  18  73 CALM      30.22R
WILLIAMSPORT   CLOUDY    31  19  61 NW3       30.22R
SELINSGROVE    CLOUDY    31  18  58 N10       30.24R
FT INDIANTOWN  CLOUDY    32  20  61 VRB1      30.23R
CAPITAL CITY   CLOUDY    31  20  63 W7        30.24R
HARRISBURG     CLOUDY    31  21  66 NW7       30.24R
YORK           CLOUDY    28  21  75 W5        30.23R
$$

PAZ038>040-043-044-047-048-054-055-060>062-067>071-200900-
EASTERN PENNSYLVANIA

CITY           SKY/WX    TMP DP  RH WIND       PRES   REMARKS
SCRANTON       CLOUDY    29  20  69 N9        30.17S
MOUNT POCONO   CLOUDY    23  18  81 NW12G18   30.10R WCI  12
ALLENTOWN      CLOUDY    31  20  63 NW6       30.22R
QUAKERTOWN*    CLOUDY    32  23  69 NE5       30.21R
READING        CLOUDY    33  20  58 N8        30.22R
LANCASTER      CLOUDY    31  21  66 W9        30.22R
COATESVILLE    CLOUDY    32  25  74 NW8       30.20R
POTTSTOWN      CLOUDY    32  21  64 N6        30.23R
BLUE BELL      CLOUDY    34  25  69 CALM      30.21R
DOYLESTOWN     CLOUDY    30  22  72 N7        30.20R
WILLOW GROVE   NOT AVBL
NORTH PHILA    CLOUDY    35  21  56 N8        30.23R
PHILADELPHIA   CLOUDY    34  22  61 NW5       30.23R
$$


USA.gov is the U.S. government's official web portal to all federal, state and local government web resources and services.